MLD101 LIPX-LUKK

Flight info

Callsign MLD101
Flight time N/A
Altitude 31000
Route N0510F350 TUVDE Y922 KOPER AKADO BADOP BARPI ZARVE VANAX KOPRY BUDOP BUSES
Aircraft T154/M-G/L

Departure

Time 2026-04-27 05:53
Airport Verona Villafranca Valerio Catullo Airport (LIPX)

Arrival

Time N/A
Airport Chişinău International Airport (LUKK)
Time Latitude Longitude Altitude Speed Heading
2026-04-27 05:50 45.38782 10.87706 247 ft 0 kts 45°
2026-04-27 05:52 45.38784 10.87710 247 ft 3 kts 45°
2026-04-27 05:52 45.38791 10.87719 247 ft 0 kts 45°
2026-04-27 05:52 45.38928 10.87919 247 ft 70 kts 45°
2026-04-27 05:53 45.39468 10.88704 247 ft 150 kts 45°
2026-04-27 05:53 45.40347 10.89984 247 ft 213 kts 45°
2026-04-27 05:53 45.41386 10.91495 1259 ft 203 kts 45°
2026-04-27 05:53 45.42326 10.92861 2681 ft 185 kts 45°
2026-04-27 05:54 45.43207 10.94148 3802 ft 180 kts 46°
2026-04-27 05:54 45.44142 10.95532 4450 ft 211 kts 45°
2026-04-27 05:54 45.45237 10.97175 5102 ft 246 kts 44°
2026-04-27 05:54 45.46452 10.99020 5960 ft 269 kts 44°
2026-04-27 05:55 45.47680 11.01219 6467 ft 300 kts 54°
2026-04-27 05:55 45.48692 11.03898 6037 ft 311 kts 63°
2026-04-27 05:55 45.49534 11.06704 5714 ft 303 kts 66°
2026-04-27 05:55 45.50284 11.09465 5436 ft 293 kts 67°
2026-04-27 05:56 45.50986 11.12146 5158 ft 283 kts 68°
2026-04-27 05:56 45.51659 11.14750 4881 ft 276 kts 68°
2026-04-27 05:56 45.52313 11.17258 4608 ft 270 kts 68°
2026-04-27 05:56 45.52971 11.19751 4330 ft 266 kts 69°
2026-04-27 05:57 45.53619 11.22204 4055 ft 263 kts 69°
2026-04-27 05:57 45.54253 11.24649 3778 ft 261 kts 70°
2026-04-27 05:57 45.54880 11.27076 3507 ft 260 kts 70°
2026-04-27 05:57 45.55503 11.29494 3256 ft 259 kts 70°
2026-04-27 05:58 45.56123 11.31903 3006 ft 258 kts 70°
2026-04-27 05:58 45.56740 11.34305 2755 ft 257 kts 70°
2026-04-27 05:58 45.57348 11.36670 2508 ft 257 kts 70°
2026-04-27 05:58 45.57962 11.39064 2258 ft 256 kts 70°
2026-04-27 05:59 45.58576 11.41453 2007 ft 256 kts 70°
2026-04-27 05:59 45.59187 11.43834 1757 ft 255 kts 70°
2026-04-27 05:59 45.59794 11.46202 1506 ft 254 kts 70°
2026-04-27 05:59 45.60401 11.48570 1255 ft 253 kts 70°
2026-04-27 06:00 45.61607 11.53275 754 ft 251 kts 70°
2026-04-27 06:00 45.62205 11.55613 516 ft 250 kts 70°
2026-04-27 06:00 45.62790 11.57897 380 ft 245 kts 70°
2026-04-27 06:01 45.63374 11.60173 367 ft 244 kts 70°
2026-04-27 06:01 45.63965 11.62473 287 ft 243 kts 70°
2026-04-27 06:01 45.64544 11.64725 312 ft 243 kts 70°
2026-04-27 06:01 45.65129 11.67011 303 ft 245 kts 70°
2026-04-27 06:02 45.65717 11.69313 301 ft 246 kts 70°
2026-04-27 06:02 45.66296 11.71579 346 ft 243 kts 70°
2026-04-27 06:02 45.66832 11.73677 1153 ft 200 kts 70°
2026-04-27 06:02 45.67122 11.74815 1787 ft 168 kts 70°
2026-04-27 06:03 45.67481 11.76330 2261 ft 176 kts 74°
2026-04-27 06:03 45.67791 11.78295 2707 ft 223 kts 79°
2026-04-27 06:03 45.68067 11.80671 2801 ft 259 kts 79°
2026-04-27 06:03 45.68551 11.83281 1985 ft 279 kts 72°